Satellite-Ground Cal/Val Site Overpasses Predictions

Prediction of Satellite NPP Overpassing Cal/Val Site: Antarctic Dome C

Ground Cal/Val Site Location: Latitude: -75.10, Longitude: 123.35; Satellite-Ground Site NADIR distance within 100 km.

Table of predicted overpasses for the next 14.0 days since TLE Epoch: 8/30/2019
Interval Starting Time Ending Time Minimum Distance Time Minimum Distance (km)
1 08/31/2019 14:55:18 08/31/2019 14:55:46 08/31/2019 14:55:32 22.88
2 09/01/2019 14:36:36 09/01/2019 14:36:51 09/01/2019 14:36:43 84.15
3 09/02/2019 07:38:08 09/02/2019 07:38:35 09/02/2019 07:38:21 35.40
4 09/03/2019 07:19:23 09/03/2019 07:19:42 09/03/2019 07:19:32 74.67
5 09/05/2019 15:01:37 09/05/2019 15:02:01 09/05/2019 15:01:49 59.86
6 09/06/2019 14:42:46 09/06/2019 14:43:12 09/06/2019 14:42:59 49.30
7 09/07/2019 07:44:28 09/07/2019 07:44:48 09/07/2019 07:44:38 70.45
8 09/08/2019 07:25:36 09/08/2019 07:26:03 09/08/2019 07:25:49 37.48
9 09/10/2019 15:08:02 09/10/2019 15:08:08 09/10/2019 15:08:05 97.52
10 09/11/2019 14:49:01 09/11/2019 14:49:30 09/11/2019 14:49:16 13.81


NCC Satellite Cal/Val Overpasses Prediction Service
